sat.trackr.live / text

‹ back to catalog

2024-018B

NORAD 58850 · 2024-018B

PAYLOAD ACTIVE UNKNOWN

§ Identity

Operator
Country
IRAN
Launch date
2024-01-28
Launch site
SEMLS
Launch vehicle
Mass (kg)
RCS (m²)

External: N2YO · Heavens-Above · Gunter

§ Orbital elements

Epoch: 2026-09-22T22:07:24.301056Z

Period
99.70 min
Inclination
58.6942°
Eccentricity
0.0406963
Mean motion
14.44378200 rev/d
Perigee alt
454.2 km
Apogee alt
1,033.9 km
Semi-major
7,122.2 km
B*
1.0974e-4
RAAN
233.0394°
Arg perigee
224.1214°
Mean anomaly
132.6680°
Rev number
13,951

§ Raw data

2024-018B1 58850U 24018B   26265.92180904  .00000813  00000+0  10974-3 0  99902 58850  58.6942 233.0394 0406963 224.1214 132.6680 14.44378200139518

JSON: /api/v1/satellites/58850 · /tle

For live sub-satellite position, see the globe view (requires WebGL).

§ Visibility from observer

Set your observer location to see the next 7 days of passes ≥ 10°. The values pass through the URL so the page stays shareable.

No JS? Fill the form by hand. The geolocation button needs JavaScript.